Погода Брохово

Погода Брохово : погода сейчас, прогноз погоды и архив. Всё, что Вы хотите узнать о погоде Брохово!

Поиск расширенной информации на нашем сайте:

Другие новости

Новости СМИ2

Главная страница сайта

Новости сайта

03.07.2017

Напоминаем, что на нашем специализированном сайте Метеоцентр.Азия вы можете получить высокодетализированные автоматические прогнозы погоды по пунктам России, СНГ и мира в авиационном формате (включающие направление и скорость ветра, видимость, явления погоды, количество и форму облачности, нижнюю и верхнюю границу облачности).


Погода Брохово - сегодня

Время (UTC), дата Ветер
(°,м/с) 
Видим.   Явления Облачность Т
(°С)
Тd
(°С)
f(%) Тe
(°С)
Pmin
(гПа)
dP
(гПа)
Po
(мм)
O2
(г/м3)
Тmin Tmax R s Состояние
почвы
06 16.08.17 220 (ЮЗ) 11-13{14}  20000 м    ясно 
+16.7 +10.1 65 +17  1017.5  -1.6  763  288           
09 16.08.17 220 (ЮЗ) 12-14{16}  20000 м    1/0 верхняя 
[Ci fib]
+13.8 +10.4 80 +13  1017  -0.6  762  290    +19.2       
12 16.08.17 220 (ЮЗ) 8-10{15}  20000 м    1/0 верхняя 
[Ci fib]
+11.5 +8.7 83 +10  1016.7  -0.3  762  293           
15 16.08.17 230 (ЮЗ) 9-11{12}  20000 м    1/0 верхняя 
[Ci fib]
+10.7 +9.5 92 +9  1015.8  -0.9  761  294           
18 16.08.17 240 (ЮЗ) 7{11}  20000 м    3/0 верхняя 
[Ci fib]
+10.6 +8.6 87 +9  1015.4  -0.4  761  294           
21 16.08.17 230 (ЮЗ) 20000 м    4/1 1000 м верхняя 
[Cu hum|Ci fib]
+13.6 +9.5 76 +12  1014.6  -0.8  760  290  +10.6        сухая 
00 17.08.17 270 (З) 12-14{14}  20000 м    8/0 верхняя 
[Ci fib]
+17.8 +10.1 61 +18  1012.8  -1.7  759  285           
03 17.08.17 260 (З) 12-14{15}  20000 м    3/0 верхняя 
[Ci fib]
+20.9 +12 57 +25  1011.2  -1.6  758  281           
06 17.08.17 220 (ЮЗ) 12-14{16}  20000 м    ясно 
+17.9 +12.7 72 +22  1010.4  -0.8  757  284           
09 17.08.17 230 (ЮЗ) 10-12{15}  20000 м    ясно 
+14.7 +10.9 78 +15  1010.4  -0.1  757  288    +21.1       
12 17.08.17 250 (З) 7{13}  20000 м    ясно 
+12 +9.8 86 +12  1010.5  0.1  757  291           
15 17.08.17 240 (ЮЗ) 20000 м    ясно 
+11.6 +9.8 89 +11  1010.3  -0.2  757  291           
18 17.08.17 230 (ЮЗ) 20000 м    1/0 верхняя 
[Ci fib]
+12 +10.3 89 +12  1010.1  -0.2  757  290           
21 17.08.17 230 (ЮЗ) 20000 м    1/1 600 м 
[Cu hum]
+14 +11.2 83 +16  1010.2  0.1  757  288  +11.2        сухая 
00 18.08.17 210 (ЮЗ) 20000 м    8/8 600 м 
[Sc]
+16.7 +12.2 75 +21  1009.9  -0.3  757  285           
03 18.08.17 220 (ЮЗ) 20000 м    3/3 600 м 
[Sc]
+19.8 +13.8 68 +26  1008.9  -0.9  756  281           
06 18.08.17 230 (ЮЗ) 8{10}  20000 м    1/1 600 м 
[Sc]
+19.8 +14.7 72 +28  1008.4  -0.5  756  281           
09 18.08.17 050 (СВ) 20000 м    ясно 
+14.7 +13.4 92 +21  1009.2  0.7  756  287    +14       
12 18.08.17 260 (З) 20000 м    ясно 
+12 +11 94 +13  1009.7  0.5  757  290           
15 18.08.17 240 (ЮЗ) 20000 м    ясно 
+11.4 +10 91 +11  1009.7  757  291           
18 18.08.17 240 (ЮЗ) 20000 м    8/8 600 м 
[Sc]
+12 +10.9 93 +13  1009.5  -0.2  757  290           
21 18.08.17 230 (ЮЗ) 20000 м    3/3 600 м 
[Sc]
+14 +13.6 97 +19  1009.8  0.3  757  287  +11.4        сухая 
00 19.08.17 210 (ЮЗ) 20000 м    9/9 600 м 
[Sc]
+16.9 +12.6 76 +22  1009.9  0.2  757  285           
03 19.08.17 090 (В) 20000 м    4/4 600 м средняя 
[Sc|Ac trans]
+15.9 +13 83 +20  1009.8  -0.2  757  286           
06 19.08.17 080 (В) 20000 м    3/3 600 м 
[Sc]
+15.4 +13.1 86 +20  1009.6  -0.2  757  286           
Время (UTC), дата Ветер
(°,м/с) 
Видим.   Явления Облачность Т
(°С)
Тd
(°С)
f(%) Тe
(°С)
Pmin
(гПа)
dP
(гПа)
Po
(мм)
O2
(г/м3)
Тmin Tmax R s Состояние
почвы

Для получения пояснительной информации подведите курсор к названию столбца.

ПОГОДА Брохово - архив

Всё, что Вы хотите узнать о погоде Брохово - удобно и подробно!

Выберите нужную дату (начиная с 1 января 2015* года) и нажмите кнопку "Найти".
Будут отображены архивные сводки погоды по пункту Брохово, начиная с указанной даты.


Отображать данные в формате CSV (для использования в таблицах Excel)


Внимание! Наш архив погоды предназначен исключительно для личного некоммерческого использования в познавательных целях. Если Вам необходимы официальные справки о состоянии погоды (для производственных, юридических, коммерческих и т.п. целей), обращайтесь в органы Росгидромета.

*Примечание: данная дата относится к архиву по метеостанциям СССР (Россия, СНГ, Балтия).
Архив по метеостанциям Зарубежной Европы и Азии (кроме Китая) хранится 10 дней, по другим регионам земного шара (Китай, Африка, Америка, Австралия, Океания) - 1 день.

Брохово - район местоположения метеостанции


Название, широта, долгота, высота метеостанции:
Брохово 59.7°ш. 154.3°д. 5 м над ур. моря [Российская Федерация]

Дополнительная информация

В oтличие oт бoльшинства пoгoдных сайтoв мы публикуем пoдрoбную метеoинфoрмацию в детальнoм прoфессиoнальнoм фoрмате.

Характеристики температуры и влажнoсти вoздуха измеряются на высoте 2 м в тени вдали oт зданий и деревьев.
Скoрoсть ветра измеряется на высoте 10 м (на урoвне рoста челoвека скoрoсть ветра ниже в 1.5-2 раза). Если метеoстанция нахoдится в гoрoде или в лесу, тo скoрoсть ветра занижена на 2-4 м/с пo сравнению с oткрытым местoм. Скoрoсть ветра над акватoриями крупных рек и oзёр, а также на вершинах хoлмoв на 2-5 м/с выше, чем в oбычных услoвиях.
Атмoсфернoе давление в разных тoчках местнoсти мoжет значительнo oтличаться oт давления на метеoстанции, в зависимoсти oт услoвий рельефа (при пoдъёме на 10 м давление пoнижается примернo на 1 мм рт.ст.).